[[{"header":{"parameterUnit":"m.s-1","parameterCategory":1,"la1":30.2991,"la2":30.254,"lo1":-89.0895,"lo2":-89.0444,"dy":0.0017,"dx":0.0017,"nx":28,"ny":28,"refTime":"2025-09-18T21:00:00:Z","depth":0,"parameterNumber":2,"parameterNumberName":"U-component_of_WINDS"},"data":[0,0,0,0,0,0,0,0,0,0,0,0,0,0,0,0,0,0,0,0,0,0,0,0,0,0,0,0,0,0,0,0,0,0,0,0,0,0,0,0,0,0,0,0,0,0,0,0,0,0,0,0,0,0,0,0,0,0,1.0965,1.0964,0,1.0894,1.0893,1.0892,1.0805,1.0803,1.0802,1.0801,1.0727,1.0726,1.0726,0,0,0,0,0,0,0,0,0,0,0,0,0,1.1027,1.1026,1.0965,1.0964,1.0963,1.0894,1.0893,1.0892,1.0805,1.0803,1.0802,1.08,1.0727,1.0727,1.0726,0,0,0,0,0,0,0,0,0,0,0,0,0,1.0982,1.1026,1.0965,1.0911,1.0906,1.0894,1.0893,1.0892,1.0805,1.0803,1.0801,1.0799,1.0728,1.0727,1.0726,1.076,0,0,1.0722,1.0722,0,0,0,0,0,0,0,0,1.0985,1.098,1.092,1.0915,1.0909,1.0856,1.0888,1.0848,1.0806,1.0843,1.0801,1.0798,1.0772,1.0767,1.0758,1.0757,1.0754,1.0722,1.0722,1.0721,1.0721,0,0,0,0,0,0,0,1.0988,1.0983,1.0937,1.0919,1.0913,1.0891,1.0883,1.088,1.082,1.084,1.0834,1.0826,1.0768,1.0759,1.0756,1.0753,1.0722,1.0722,1.0721,1.072,1.0779,1.0781,0,0,0,0,0,0,1.0999,1.0986,1.0939,1.0934,1.0943,1.0892,1.0882,1.0875,1.082,1.0809,1.0828,1.0823,1.0762,1.0757,1.0753,1.0791,1.0721,1.072,1.072,1.0777,1.078,1.0782,0,0,0,0,0,0,1.1001,1.0996,1.0942,1.0958,1.095,1.0893,1.0886,1.0875,1.0866,1.0811,1.08,1.083,1.076,1.0754,1.076,1.0787,1.072,1.0719,1.0774,1.0778,1.0781,1.0868,0,0,0,0,0,0,1.1003,1.0997,1.1009,1.0959,1.0949,1.095,1.0887,1.0875,1.0864,1.0856,1.0809,1.08,1.0758,1.0762,1.0759,1.0785,1.0718,1.0772,1.0776,1.078,1.0862,1.0874,1.0883,0,0,0,0,0,1.1006,1.1036,1.101,1.1005,1.0963,1.0952,1.0946,1.0897,1.0867,1.0879,1.0844,1.0801,1.0785,1.0763,1.0759,1.0785,1.077,1.0775,1.0779,1.0857,1.0871,1.0883,0,0,0,0,0,0,1.1089,1.1028,1.0999,1.1014,1.0989,1.0937,1.095,1.0913,1.0896,1.0889,1.083,1.082,1.0833,1.0809,1.0786,1.0817,1.0771,1.0776,1.0832,1.0845,1.0855,1.086,1.0717,0,0,0,0,0,1.111,1.1105,1.1052,1.107,1.1059,1.1008,1.1001,1.0966,1.0937,1.0926,1.0891,1.0865,1.0854,1.0848,1.0835,1.0859,1.0848,1.0875,1.0885,1.0894,1.0899,1.0911,1.0923,1.0798,1.0798,1.0798,0,0,1.1151,1.1117,1.1118,1.1086,1.1063,1.106,1.0999,1.0998,1.0996,1.0925,1.0929,1.0903,1.087,1.0886,1.0891,1.0866,1.0931,1.0901,1.0908,1.0907,1.0918,1.093,1.094,1.0801,1.0801,1.08,0,0,1.1226,1.12,1.1213,1.1191,1.1156,1.1122,1.1126,1.108,1.106,1.1063,1.1011,1.1008,1.099,1.0969,1.0956,1.1027,1.0987,1.1024,1.1079,1.1092,1.1102,1.1111,1.1137,1.1147,1.1029,1.1029,1.1029,0,1.1282,1.1275,1.1224,1.1227,1.1216,1.1153,1.1167,1.1148,1.1111,1.1105,1.1078,1.1056,1.1029,1.104,1.1058,1.1049,1.1052,1.1029,1.1105,1.1113,1.112,1.1144,1.1154,1.1034,1.1033,1.1033,1.1032,0,1.1347,1.1344,1.1359,1.1326,1.1316,1.1324,1.1275,1.1271,1.1238,1.1207,1.1212,1.1178,1.1158,1.1158,1.1125,1.1165,1.1151,1.1116,1.1068,1.1138,1.116,1.1168,1.104,1.1039,1.1037,1.1036,0,0,1.147,1.1411,1.1417,1.1403,1.1361,1.1358,1.1364,1.1345,1.1344,1.1321,1.1326,1.1314,1.1281,1.1267,1.1232,1.1243,1.1303,1.1206,1.1205,1.1226,1.1346,1.1374,1.1385,1.1277,1.1278,1.128,1.135,0,1.1538,1.1545,1.1501,1.152,1.1517,1.146,1.1466,1.1442,1.1414,1.1407,1.1376,1.1369,1.1326,1.1318,1.1327,1.1294,1.1326,1.1288,1.1281,1.1281,1.1291,1.1396,1.1424,1.1492,1.1358,1.1359,1.136,0,1.1616,1.16,1.162,1.158,1.1577,1.1583,1.1563,1.1558,1.153,1.1509,1.1495,1.1454,1.1459,1.1415,1.1421,1.1396,1.1391,1.1375,1.1376,1.1373,1.1325,1.1397,1.1512,1.1523,1.1373,1.1372,1.1371,0,1.1706,1.1688,1.1698,1.1687,1.164,1.1646,1.1627,1.1597,1.159,1.1573,1.1567,1.1551,1.1542,1.1531,1.1488,1.146,1.15,1.1452,1.1483,1.1485,1.1494,1.1494,1.161,1.1491,1.149,1.149,1.149,0,1.1786,1.18,1.1738,1.1744,1.1759,1.1709,1.1726,1.1701,1.1675,1.1676,1.1625,1.1628,1.1571,1.1567,1.1533,1.1545,1.1541,1.1524,1.1515,1.1529,1.1531,1.1524,1.1519,1.1493,1.1492,1.1492,1.1491,0,1.1888,1.1846,1.1854,1.181,1.1799,1.1813,1.1775,1.1779,1.1749,1.1751,1.1749,1.1702,1.1695,1.1651,1.1634,1.1612,1.1635,1.1617,1.1645,1.1639,1.1673,1.1671,1.1789,1.1803,1.1675,1.1676,1.1677,0,1.1941,1.1951,1.1909,1.1907,1.189,1.1886,1.1879,1.183,1.1825,1.1796,1.1804,1.1793,1.1782,1.1774,1.1738,1.1725,1.1706,1.1749,1.1704,1.1718,1.1708,1.1708,1.1709,1.1758,1.176,1.1761,1.1762,0,1.2041,1.2021,1.2012,1.1997,1.199,1.1976,1.1958,1.1959,1.1905,1.1902,1.1895,1.1886,1.187,1.186,1.1842,1.1822,1.1784,1.1777,1.1784,1.1798,1.1814,1.1807,1.1671,1.1774,1.1773,1.1772,1.1771,1.1771,1.2121,1.2128,1.21,1.2093,1.2075,1.2061,1.2063,1.2034,1.2028,1.2011,1.1983,1.198,1.1954,1.1926,1.191,1.1908,1.1885,1.1895,1.1897,1.19,1.1908,1.1815,1.1904,1.1904,1.1903,1.1903,1.1903,0,1.2219,1.2199,1.2193,1.2171,1.2165,1.2131,1.211,1.2108,1.2107,1.2086,1.2077,1.207,1.2061,1.2026,1.2013,1.2019,1.2001,1.2017,1.2016,1.2013,1.1928,1.1924,1.2032,1.2032,1.2032,1.2032,1.2032,1.2032,1.2269,1.228,1.2257,1.226,1.2239,1.2237,1.2228,1.2215,1.2199,1.2193,1.2186,1.2164,1.2137,1.2123,1.2114,1.2104,1.2102,1.2124,1.2109,1.2031,1.2018,1.2006,1.2002,1.2124,1.2125,1.2193,1.2194,1.2194]},{"header":{"parameterUnit":"m.s-1","parameterCategory":1,"la1":30.2991,"la2":30.254,"lo1":-89.0895,"lo2":-89.0444,"dy":0.0017,"dx":0.0017,"nx":28,"ny":28,"refTime":"2025-09-18T21:00:00:Z","depth":0,"parameterNumber":3,"parameterNumberName":"V-component_of_WINDS"},"data":[0,0,0,0,0,0,0,0,0,0,0,0,0,0,0,0,0,0,0,0,0,0,0,0,0,0,0,0,0,0,0,0,0,0,0,0,0,0,0,0,0,0,0,0,0,0,0,0,0,0,0,0,0,0,0,0,0,0,-2.7268,-2.7268,0,-2.7238,-2.7238,-2.7237,-2.7191,-2.719,-2.7189,-2.7189,-2.7154,-2.7154,-2.7153,0,0,0,0,0,0,0,0,0,0,0,0,0,-2.7284,-2.7284,-2.7269,-2.7268,-2.7268,-2.7238,-2.7238,-2.7237,-2.7191,-2.719,-2.7189,-2.7188,-2.7154,-2.7154,-2.7153,0,0,0,0,0,0,0,0,0,0,0,0,0,-2.7268,-2.7284,-2.7269,-2.7241,-2.7238,-2.7238,-2.7238,-2.7237,-2.7191,-2.719,-2.7189,-2.7188,-2.7154,-2.7154,-2.7153,-2.7176,0,0,-2.7153,-2.7153,0,0,0,0,0,0,0,0,-2.7269,-2.7268,-2.7246,-2.7243,-2.724,-2.7217,-2.7231,-2.7217,-2.7192,-2.7209,-2.7188,-2.7187,-2.7176,-2.7173,-2.717,-2.7175,-2.7173,-2.7153,-2.7152,-2.7152,-2.7152,0,0,0,0,0,0,0,-2.727,-2.7269,-2.7256,-2.7245,-2.7242,-2.723,-2.7226,-2.7228,-2.7199,-2.7207,-2.7204,-2.7201,-2.7174,-2.7171,-2.7169,-2.7173,-2.7153,-2.7152,-2.7152,-2.7152,-2.7197,-2.7199,0,0,0,0,0,0,-2.7276,-2.727,-2.7257,-2.7255,-2.7252,-2.7231,-2.7226,-2.7226,-2.7199,-2.7194,-2.7202,-2.7199,-2.7172,-2.717,-2.7168,-2.7195,-2.7152,-2.7152,-2.7152,-2.7196,-2.7198,-2.7199,0,0,0,0,0,0,-2.7276,-2.7275,-2.7259,-2.7262,-2.7259,-2.7232,-2.7231,-2.7226,-2.7223,-2.7196,-2.719,-2.7205,-2.7171,-2.7168,-2.7176,-2.7193,-2.7152,-2.7152,-2.7194,-2.7197,-2.7198,-2.7248,0,0,0,0,0,0,-2.7277,-2.7276,-2.7284,-2.7262,-2.7259,-2.7267,-2.7232,-2.7226,-2.7223,-2.7218,-2.7196,-2.7191,-2.717,-2.7176,-2.7175,-2.7192,-2.7152,-2.7193,-2.7195,-2.7198,-2.7245,-2.7252,-2.7258,0,0,0,0,0,-2.7278,-2.7298,-2.7285,-2.7284,-2.7269,-2.7269,-2.7266,-2.7242,-2.7224,-2.7233,-2.7216,-2.7192,-2.7191,-2.7177,-2.7176,-2.7193,-2.7192,-2.7195,-2.7198,-2.7242,-2.7251,-2.7258,0,0,0,0,0,0,-2.7321,-2.7295,-2.728,-2.7294,-2.7284,-2.7261,-2.727,-2.7251,-2.7245,-2.7241,-2.721,-2.7205,-2.7217,-2.7205,-2.719,-2.7215,-2.7188,-2.7191,-2.7222,-2.723,-2.7236,-2.7239,-2.7151,0,0,0,0,0,-2.7332,-2.7335,-2.7311,-2.7326,-2.7322,-2.7298,-2.7296,-2.7279,-2.7267,-2.7262,-2.7245,-2.7234,-2.7231,-2.723,-2.7225,-2.7243,-2.7239,-2.7254,-2.7261,-2.7266,-2.7269,-2.728,-2.7287,-2.7209,-2.7209,-2.7209,0,0,-2.7355,-2.7341,-2.7344,-2.7335,-2.7325,-2.7328,-2.7294,-2.7298,-2.73,-2.7262,-2.7269,-2.7256,-2.7241,-2.7255,-2.726,-2.7246,-2.729,-2.727,-2.7274,-2.7274,-2.7284,-2.7291,-2.7298,-2.7211,-2.7211,-2.721,0,0,-2.7399,-2.7389,-2.7401,-2.7393,-2.7379,-2.7363,-2.7367,-2.7347,-2.7338,-2.7345,-2.7317,-2.7318,-2.7314,-2.7305,-2.73,-2.7345,-2.7323,-2.7344,-2.7377,-2.7388,-2.7394,-2.7399,-2.7417,-2.7423,-2.7347,-2.7347,-2.7347,0,-2.7429,-2.7434,-2.7409,-2.7416,-2.7413,-2.7381,-2.7394,-2.7386,-2.7372,-2.737,-2.7355,-2.7351,-2.7338,-2.735,-2.7362,-2.7358,-2.7361,-2.7346,-2.7395,-2.74,-2.7405,-2.7421,-2.7427,-2.735,-2.7349,-2.7349,-2.7349,0,-2.7472,-2.7476,-2.7487,-2.7477,-2.7475,-2.7484,-2.7461,-2.7462,-2.7446,-2.7431,-2.744,-2.7424,-2.7418,-2.7419,-2.7401,-2.7429,-2.7421,-2.7401,-2.7373,-2.7416,-2.743,-2.7436,-2.7354,-2.7353,-2.7352,-2.7351,0,0,-2.754,-2.7519,-2.7523,-2.7519,-2.7504,-2.7506,-2.7514,-2.751,-2.7512,-2.7503,-2.7511,-2.7509,-2.7491,-2.7486,-2.7467,-2.7477,-2.7515,-2.7455,-2.7455,-2.7468,-2.7547,-2.7563,-2.7571,-2.7501,-2.7502,-2.7503,-2.7549,0,-2.7582,-2.7597,-2.7576,-2.7595,-2.7599,-2.757,-2.7578,-2.7569,-2.7557,-2.7558,-2.7543,-2.7544,-2.7519,-2.7516,-2.7524,-2.7509,-2.7531,-2.7505,-2.7508,-2.7508,-2.7513,-2.7578,-2.7595,-2.7639,-2.7554,-2.7555,-2.7556,0,-2.7631,-2.7629,-2.7649,-2.7635,-2.7636,-2.7643,-2.7639,-2.764,-2.763,-2.762,-2.7616,-2.7595,-2.7603,-2.7577,-2.7587,-2.7571,-2.757,-2.7563,-2.7564,-2.7564,-2.7535,-2.7581,-2.7652,-2.7659,-2.7564,-2.7564,-2.7563,0,-2.7681,-2.7682,-2.7695,-2.7692,-2.7675,-2.7682,-2.7675,-2.7664,-2.7663,-2.7659,-2.7659,-2.7655,-2.7653,-2.7651,-2.763,-2.7612,-2.7644,-2.7615,-2.7636,-2.7637,-2.7644,-2.7644,-2.7718,-2.7643,-2.7643,-2.7643,-2.7643,0,-2.773,-2.7744,-2.7718,-2.7726,-2.7741,-2.7718,-2.7733,-2.7723,-2.7714,-2.772,-2.7694,-2.7699,-2.7671,-2.7674,-2.7658,-2.767,-2.7669,-2.7662,-2.7657,-2.7665,-2.7666,-2.7664,-2.7661,-2.7645,-2.7644,-2.7644,-2.7644,0,-2.7788,-2.7771,-2.7784,-2.7768,-2.7765,-2.7777,-2.7763,-2.777,-2.7757,-2.7764,-2.7765,-2.7744,-2.7746,-2.7725,-2.7722,-2.7712,-2.7732,-2.7722,-2.7736,-2.7734,-2.7757,-2.7756,-2.7833,-2.7842,-2.7761,-2.7761,-2.7762,0,-2.7821,-2.7831,-2.7818,-2.7821,-2.7816,-2.782,-2.7821,-2.7799,-2.78,-2.7791,-2.7799,-2.78,-2.7799,-2.7804,-2.7789,-2.7787,-2.7777,-2.7804,-2.7777,-2.7785,-2.7779,-2.7779,-2.7781,-2.781,-2.7811,-2.7812,-2.7813,0,-2.7881,-2.7873,-2.7875,-2.7875,-2.7877,-2.7875,-2.7872,-2.7875,-2.7851,-2.7854,-2.7857,-2.7857,-2.7857,-2.7858,-2.7854,-2.7846,-2.7826,-2.7822,-2.7827,-2.7835,-2.7844,-2.7841,-2.7753,-2.782,-2.7819,-2.7819,-2.7818,-2.7818,-2.7928,-2.7937,-2.793,-2.7934,-2.793,-2.7928,-2.7935,-2.7924,-2.7926,-2.7925,-2.7912,-2.7918,-2.791,-2.7903,-2.7898,-2.7902,-2.7889,-2.7896,-2.7898,-2.79,-2.7905,-2.7843,-2.7901,-2.7901,-2.7901,-2.79,-2.79,0,-2.7988,-2.7983,-2.7987,-2.7985,-2.7988,-2.7971,-2.7967,-2.7971,-2.7977,-2.7972,-2.7973,-2.7978,-2.7979,-2.7965,-2.7965,-2.7972,-2.7963,-2.7973,-2.7972,-2.7971,-2.7916,-2.7913,-2.798,-2.798,-2.798,-2.798,-2.798,-2.798,-2.802,-2.8035,-2.8027,-2.804,-2.8034,-2.8042,-2.8042,-2.804,-2.8036,-2.8044,-2.8046,-2.8037,-2.8029,-2.8028,-2.803,-2.8025,-2.8027,-2.8041,-2.8033,-2.7982,-2.7975,-2.7967,-2.7964,-2.8041,-2.8041,-2.8088,-2.8088,-2.8089]}]]